Regional Weather Roundup
Issued by NWS

Home | Current Version | Previous Version | Text Only | Print | Product List | Glossary On
Versions: 1 2 3 4 5 6 7 8 9 10 11 12 13 14 15 16 17 18 19 20 21 22 23 24 25 26 27 28 29 30 31 32 33 34 35 36 37 38 39 40 41 42 43 44 45 46 47 48 49 50
000
ASUS43 KLMK 211210
RWRKY
KENTUCKY REGIONAL WEATHER ROUNDUP
NATIONAL WEATHER SERVICE LOUISVILLE KY
700 AM EST WED FEB 21 2018

NOTE "FAIR" INDICATES FEW OR NO CLOUDS BELOW 12,000 FEET
WITH NO SIGNIFICANT WEATHER AND/OR OBSTRUCTIONS TO VISIBILITY.

KYZ001>023-026-027-061>063-070>075-211300-
WESTERN AND SOUTH CENTRAL KENTUCKY

CITY           SKY/WX    TMP DP  RH WIND       PRES   REMARKS
PADUCAH        LGT RAIN  40  37  89 N14       30.29R WCI  32
HENDERSON      LGT RAIN  42  40  92 NW12      30.33R
OWENSBORO      RAIN      47  46  97 NW12      30.29R
HOPKINSVILLE   CLOUDY    54  54 100 N18       30.22R
BOWLING GREEN  CLOUDY    70  64  81 S12       30.20R
GLASGOW        CLOUDY    69  61  76 S12G17    30.21R
$$

KYZ024-025-028>034-038-045-046-053-211300-
NORTH CENTRAL KENTUCKY

CITY           SKY/WX    TMP DP  RH WIND       PRES   REMARKS
LOUISVILLE/SDF HVY RAIN  60  58  92 NW8       30.24R FOG
LOUISVILLE/LOU HVY RAIN  60  59  96 NW7       30.25R FOG
FORT KNOX      RAIN      58  58 100 NW7       30.23R FOG
$$

KYZ035>037-039>044-047>052-055>060-089>105-211300-
NORTHEAST KENTUCKY

CITY           SKY/WX    TMP DP  RH WIND       PRES   REMARKS
LEXINGTON      CLOUDY    68  60  75 S14       30.21R
COVINGTON      CLOUDY    57  56  96 N7        30.20R
FRANKFORT      LGT RAIN  61  54  77 N10G24    30.21R
$$

KYZ054-064>069-076>088-106>120-211300-
SOUTHEAST KENTUCKY

CITY           SKY/WX    TMP DP  RH WIND       PRES   REMARKS
JACKSON        FAIR      67  57  70 S10G20    30.26R
LONDON         CLOUDY    66  58  75 S5        30.27R
SOMERSET       CLOUDY    68  59  73 MISG      30.27R
MIDDLESBORO    DRIZZLE   66  61  84 S7        30.32S
MONTICELLO     NOT AVBL
$$





USA.gov is the U.S. government's official web portal to all federal, state and local government web resources and services.